CW4884 Weather Reports


Display with metric or nautical units.
time (UTC)temp
F
wind
direction
speed
MPH
gust
MPH
rain 1hr
in
rain 24hr
in
rain mn
in
humidity
%
barometer
mb
20260503004528 72 296 2.0 0.0 0.00 0.00 0.00 30 1009.5
20260503003036 73 279 2.0 0.0 0.00 0.00 0.00 27 1009.7
20260503001537 73 277 1.0 0.0 0.00 0.00 0.00 27 1009.7
20260503000100 74 247 1.0 0.0 0.00 0.00 0.00 26 1009.6
20260502234611 74 245 2.0 0.0 0.00 0.00 0.00 27 1009.8
20260502233106 75 261 2.0 0.0 0.00 0.00 0.00 28 1009.9
20260502231554 75 248 2.0 0.0 0.00 0.00 0.00 26 1010.1
20260502230100 75 275 2.0 0.0 0.00 0.00 0.00 27 1010.3
20260502224510 75 269 2.0 0.0 0.00 0.00 0.00 31 1010.4
20260502223008 75 262 2.0 0.0 0.00 0.00 0.00 27 1010.6
20260502221510 75 323 1.0 0.0 0.00 0.00 0.00 28 1010.9
20260502220005 75 277 1.0 0.0 0.00 0.00 0.00 27 1010.9
20260502214502 74 276 2.0 0.0 0.00 0.00 0.00 26 1011.3
20260502213019 74 271 1.0 0.0 0.00 0.00 0.00 30 1011.5
20260502211518 73 286 3.0 0.0 0.00 0.00 0.00 33 1011.6
20260502210008 73 297 3.0 0.0 0.00 0.00 0.00 29 1011.9
20260502204512 73 263 1.0 0.0 0.00 0.00 0.00 31 1012.1
20260502203039 73 260 2.0 0.0 0.00 0.00 0.00 36 1012.2
20260502201536 72 188 2.0 0.0 0.00 0.00 0.00 35 1012.5
20260502200035 71 188 1.0 0.0 0.00 0.00 0.00 38 1012.6
20260502194534 70 188 1.0 0.0 0.00 0.00 0.00 40 1012.8
20260502193030 69 189 1.0 0.0 0.00 0.00 0.00 45 1013.0
20260502191526 68 189 1.0 0.0 0.00 0.00 0.00 45 1013.3
20260502190048 66 189 1.0 0.0 0.00 0.00 0.00 41 1013.6
20260502184546 66 184 2.0 0.0 0.00 0.00 0.00 46 1013.9
20260502183030 65 178 2.0 0.0 0.00 0.00 0.00 52 1014.0
20260502181529 64 178 2.0 0.0 0.00 0.00 0.00 41 1014.3
20260502163055 56 157 2.0 0.0 0.00 0.00 0.00 52 1015.3
20260502161553 55 157 2.0 0.0 0.00 0.00 0.00 57 1015.5
20260502151547 50 153 1.0 0.0 0.00 0.00 0.00 60 1016.1
20260502123033 40 30 0.0 0.0 0.00 0.00 0.00 72 1015.7
20260502121543 41 30 1.0 0.0 0.00 0.00 0.00 72 1015.7
20260502114533 40 30 0.0 0.0 0.00 0.00 0.00 72 1015.7
20260502113031 41 30 0.0 0.0 0.00 0.00 0.00 69 1015.8
20260502111529 43 30 0.0 0.0 0.00 0.00 0.00 67 1015.6
20260502110028 44 30 2.0 0.0 0.00 0.00 0.00 65 1015.6
20260502104540 43 30 2.0 0.0 0.00 0.00 0.00 68 1015.5
20260502103027 42 30 1.0 0.0 0.00 0.00 0.00 71 1015.2
20260502101524 40 30 0.0 0.0 0.00 0.00 0.00 75 1015.2
20260502091520 42 30 0.0 0.0 0.00 0.00 0.00 70 1015.1
20260502070042 52 30 1.0 0.0 0.00 0.00 0.00 51 1014.6
20260502064547 52 30 4.0 0.0 0.00 0.00 0.00 50 1014.4
20260502063039 52 9 2.0 0.0 0.00 0.00 0.00 51 1014.2
20260502061539 52 19 4.0 0.0 0.00 0.00 0.00 50 1014.1
20260502060034 52 17 5.0 0.0 0.00 0.00 0.00 50 1014.0
20260502054520 53 18 5.0 0.0 0.00 0.00 0.00 49 1014.1
20260502053014 53 17 5.0 0.0 0.00 0.00 0.00 48 1014.0
20260502051531 54 23 2.0 0.0 0.00 0.00 0.00 48 1013.9
20260502050011 54 19 3.0 0.0 0.00 0.00 0.00 47 1013.8
20260502044611 55 23 4.0 0.0 0.00 0.00 0.00 46 1013.7
20260502043111 55 14 3.0 0.0 0.00 0.00 0.00 48 1013.8
20260502041506 55 5 1.0 0.0 0.00 0.00 0.00 47 1013.5
20260502040022 55 5 0.0 0.0 0.00 0.00 0.00 48 1013.5
20260502034536 56 311 0.0 0.0 0.00 0.00 0.00 48 1013.4
20260502033028 56 311 0.0 0.0 0.00 0.00 0.00 48 1013.2
20260502031521 56 297 0.0 0.0 0.00 0.00 0.00 50 1013.0
20260502030020 57 269 0.0 0.0 0.00 0.00 0.00 51 1012.7
20260502024525 59 269 0.0 0.0 0.00 0.00 0.00 48 1012.6
20260502023019 62 269 0.0 0.0 0.00 0.00 0.00 44 1012.3
20260502021519 65 269 0.0 0.0 0.00 0.00 0.00 37 1012.3
20260502020019 68 268 0.0 0.0 0.00 0.00 0.00 35 1012.2
20260502014524 69 268 0.0 0.0 0.00 0.00 0.00 30 1012.3
20260502013015 70 268 0.0 0.0 0.00 0.00 0.00 26 1012.4
20260502011514 70 268 0.0 0.0 0.00 0.00 0.00 28 1012.5
20260502010052 71 268 2.0 0.0 0.00 0.00 0.00 29 1012.7